Skip Page Navigation
NASA JPL Caltech
NASA Logo - Jet Propulsion Laboratory + View the NASA Portal
+ Center for Near-Earth Object Studies
JPL Home Earth Solar System Stars & Galaxies Technology
JPL Solar System Dynamics
BODIES ORBITS EPHEMERIDES TOOLS PHYSICAL DATA DISCOVERY FAQ SITE MAP
IMPORTANT: The SSD Announcement email list is now available. Major changes are coming in the near future, including possible hostname and/or URL changes. To be notified of such changes, subscribe to this email list.

Please visit this page for more details.


JPL Small-Body Database Browser
Search: [ help ]  
2578 Saint-Exupery (1975 VW3)
Classification: Main-belt Asteroid          SPK-ID: 2002578
Ephemeris | Orbit Diagram | Orbital Elements | Mission Design | Physical Parameters | Discovery Circumstances | Close-Approach Data ]

[ hide orbit diagram ]

For accurate long-term ephemerides, please instead use our Horizons system.This orbit viewer was implemented using two-body methods, and hence should not be used for determining accurate long-term trajectories (over several years or decades) or planetary encounter circumstances.


[ revert to old Java-based viewer ]

Orbital Elements at Epoch 2458600.5 (2019-Apr-27.0) TDB
Reference: JPL 34 (heliocentric ecliptic J2000)
 Element Value Uncertainty (1-sigma)   Units 
e .09708460561129223 4.2694e-08  
a 3.000152579661616 1.6407e-08 au
q 2.708883949691467 1.2921e-07 au
i 10.57135927152189 4.4529e-06 deg
node 55.70215315179817 2.7316e-05 deg
peri 335.9274751300106 3.6307e-05 deg
M 131.329304787756 2.4786e-05 deg
tp 2457908.075246855877
(2017-Jun-03.57524686)
0.00012896 TDB
period 1898.075311787719
5.20
1.557e-05
4.263e-08
d
yr
n .1896658145039202 1.5558e-09 deg/d
Q 3.291421209631764 1.8e-08 au
  Orbit Determination Parameters
   # obs. used (total)      2004  
   data-arc span      24457 days (66.96 yr)  
   first obs. used      1952-05-24  
   last obs. used      2019-05-10  
   planetary ephem.      DE431  
   SB-pert. ephem.      SB431-N16  
   condition code      0  
   norm. resid. RMS      .48345  
   source      ORB  
   producer      Otto Matic  
   solution date      2019-May-29 21:41:32  

Additional Information
 Earth MOID = 1.71884 au 
 Jupiter MOID = 2.12486 au 
 T_jup = 3.220 
[ show covariance matrix ]

Ephemeris | Orbit Diagram | Orbital Elements | Mission Design | Physical Parameters | Discovery Circumstances | Close-Approach Data ]

Physical Parameter Table
Parameter Symbol Value Units Sigma Reference Notes
absolute magnitude H 11.5   n/a MPO337269  
diameter diameter 17.014 km 0.485 urn:nasa:pds:neowise_diameters_albedos::2.0[mainbelt] (http://adsabs.harvard.edu/abs/2011ApJ...741...68M)  
rotation period rot_per 8.146 h n/a LCDB (Rev. 2019-January); Warner et al., 2009 Published Reference List:
[Salvaggio, F.; Banfi, M.; Marchini, A.; Papini, R. (2018) Minor Planet Bull. 45, 171-173.]
geometric albedo albedo 0.168   0.039 urn:nasa:pds:neowise_diameters_albedos::2.0[mainbelt] (http://adsabs.harvard.edu/abs/2011ApJ...741...68M)  

2578 Saint-Exupery (1975 VW3)          Discovered 1975-Nov-02 by Smirnova, T. at Nauchnyj
Reference: DISCOVERY.DBLast Updated: 2003-08-29

[ show close-approach data ]
Alternate Designations
 1975 VW3 = 1952 HG2 = 1980 TA1 
Ephemeris | Orbit Diagram | Orbital Elements | Mission Design | Physical Parameters | Discovery Circumstances | Close-Approach Data ]
ABOUT SSD CREDITS/AWARDS PRIVACY/COPYRIGHT GLOSSARY LINKS
FirstGov 2019-Dec-16 11:28 UT
(server date/time)  
NASA Home Page
Site Manager:   Ryan S. Park
Webmaster  Alan B. Chamberlin